Preview of NWS' New Version of Forecast
This preview is not operational and should not be used for support decisions.

Regional Weather Roundup (RWR)

Issued by Philadelphia/Mt Holly (PHI)

                            
000
ASUS41 KPHI 241512
RWRPHI

REGIONAL WEATHER ROUNDUP
NATIONAL WEATHER SERVICE MOUNT HOLLY NJ
1100 AM EDT FRI MAY 24 2019

NOTE:  "FAIR" INDICATES FEW OR NO CLOUDS BELOW 12,000 FEET WITH NO
SIGNIFICANT WEATHER AND/OR OBSTRUCTIONS TO VISIBILITY.

 * = STATION DOES NOT REPORT PRECIPITATION (E.G. RAIN, SNOW, ETC.) 
        OR FOG.

NJZ015>026-241600-
SOUTHERN NEW JERSEY
  
CITY           SKY/WX    TMP DP  RH WIND       PRES   REMARKS
POMONA         FAIR      76  50  40 NW24G33   29.92R                  
WILDWOOD*      FAIR      76  55  48 NW18G25   29.96R                  
MILLVILLE      FAIR      76  52  43 NW14G26   29.94S                  
WRIGHTSTOWN    FAIR      73  49  41 N12G24    29.90R                  
MOUNT HOLLY    FAIR      73  49  42 NW16G24   29.93S                  
TRENTON        FAIR      71  49  45 NW18G29   29.93R                  

$$
NJZ001>014-241600-
NORTHERN NEW JERSEY
  
CITY           SKY/WX    TMP DP  RH WIND       PRES   REMARKS
SUSSEX         CLOUDY    66  52  60 NW14G24   29.95R                  
ANDOVER*         N/A     68  51  54 NW12G21   29.93R                  
MORRISTOWN     MOSUNNY   70  54  56 NW15G26   29.92R                  
NEWARK         FAIR      74  49  41 NW20G35   29.89R                  
TETERBORO      FAIR      71  50  47 NW25G32   29.87R                  
CALDWELL       FAIR      72  50  45 NW13G30   29.90R                  
SOMERVILLE     FAIR      72  49  44 NW17      29.90R                  
ALLAIRE*       FAIR      74  50  42 NW16G26   29.91R                  
TOMS RIVER*    FAIR      74  50  42 NW14G22   29.91R                  

$$
PAZ043-044-047-054-055-060>062-066>071-241600-
EASTERN PENNSYLVANIA
  
CITY           SKY/WX    TMP DP  RH WIND       PRES   REMARKS
PHILADELPHIA   FAIR      74  47  38 NW20G32   29.95R                  
NORTH PHILA    FAIR      75  48  38 N23G31    29.95S                  
BLUE BELL*     FAIR      71  49  45 W12G22    29.96S                  
DOYLESTOWN     FAIR      73  50  44 NW14G28   29.94S                  
QUAKERTOWN*    MOSUNNY   70  50  49 NW9G18    29.97                   
PERKASIE*      FAIR      70  48  46 NW13G24   29.97R                  
POTTSTOWN      FAIR      70  48  45 NW9G24    29.98R                  
LANCASTER      FAIR      73  52  47 W17G23    29.99S                  
COATESVILLE    FAIR      70  48  46 NW15G28   30.00R                  
WEST CHESTER   FAIR      72  46  40 NW10G21   29.98S                  
READING        FAIR      72  53  51 NW18      29.97S                  
ALLENTOWN      FAIR      72  50  45 NW12G21   29.96R                  
QN CITY/ALNTWN PTSUNNY   70  50  49 NW9G20    29.98R                  
MOUNT POCONO   CLOUDY    59  48  67 NW23G35   29.97R                  
HAZLETON       CLOUDY    64  46  52 NW8G16    30.03R                  
LEHIGHTON      FAIR      68  46  45 NW8G18    29.98R                  
WILKES BARRE   CLOUDY    64  49  57 NW13G21   30.00R                  

$$
DEZALL-MDZ008-012-015-019-020-241600-
DELAWARE AND EASTERN MARYLAND
  
CITY           SKY/WX    TMP DP  RH WIND       PRES   REMARKS
WILMINGTON     FAIR      75  51  43 NW17G24   29.97S                  
DOVER          FAIR      73  52  46 W14G24    29.97S                  
CHESWOLD         N/A     75  52  43 W12G22    29.97F                  
GEORGETOWN     FAIR      77  52  41 NW15G25   29.97F                  
EASTON         SUNNY     77  54  44 NW17      30.04F                  
STEVENSVILLE   FAIR      75  57  53 NW9       30.01S                  
ABERDEEN       MOSUNNY   75  54  46 NW15      30.01S                  
PATUXENT       FAIR      80  56  43 NW17      30.00F                  
OCEAN CITY     FAIR      78  56  46 NW15G25   29.97S                  
WALLOPS ISLAND FAIR      81  62  52 NW17      29.98S                  
CAMBRIDGE      SUNNY     75  55  50 NW13G22   30.00S                  
SALISBURY      FAIR      80  56  43 NW13G23   29.98S                  

$$
PAZ001-021-NYZ056-072-MDZ011-DCZ001-241600-
OTHER NEARBY LOCATIONS
  
CITY           SKY/WX    TMP DP  RH WIND       PRES   REMARKS
HARRISBURG     FAIR      71  51  49 W15       30.01R                  
STATE COLLEGE  MOSUNNY   68  48  49 NW14G20   30.08R                  
WILLIAMSPORT   FAIR      72  47  40 NW16G22   30.00R                  
BINGHAMTON     CLOUDY    55  49  80 N15G25    30.01R                  
NEW YORK CITY  PTSUNNY   70  48  45 MISG      29.91R                  
BALTIMORE      FAIR      76  51  41 W20G29    30.01F                  
WASHINGTON DC  FAIR      76  51  41 NW17      30.04S                  

$$